Currently 62°F in Simi Valley, California, USA
62°F
78°F / 54°F
calm
0.00"
Tuesday, September 25, 2018 9:56 PM PDT

Simi Valley, California Climate Summary
Typical August Day

Normal High:    88.6°F (31.4°C)
Normal Low:    61.6°F (16.5°C)
Average:    74.1°F (23.4°C)

Hour    Temperature    Wind Speed    Humidity
12:00 AM    68°F (20°C)    2 mph    64%
1:00 AM    67°F (19°C)    1 mph    65%
2:00 AM    66°F (19°C)    2 mph    67%
3:00 AM    65°F (18°C)    1 mph    68%
4:00 AM    64°F (18°C)    2 mph    69%
5:00 AM    63°F (17°C)    1 mph    71%
6:00 AM    63°F (17°C)    1 mph    72%
7:00 AM    63°F (17°C)    1 mph    73%
8:00 AM    66°F (19°C)    1 mph    72%
9:00 AM    71°F (22°C)    2 mph    66%
10:00 AM    77°F (25°C)    3 mph    57%
11:00 AM    82°F (28°C)    4 mph    48%
12:00 PM    85°F (29°C)    6 mph    43%
1:00 PM    87°F (30°C)    7 mph    41%
2:00 PM    87°F (31°C)    7 mph    40%
3:00 PM    87°F (30°C)    7 mph    40%
4:00 PM    86°F (30°C)    7 mph    40%
5:00 PM    84°F (29°C)    6 mph    42%
6:00 PM    82°F (28°C)    5 mph    45%
7:00 PM    80°F (27°C)    4 mph    48%
8:00 PM    75°F (24°C)    3 mph    56%
9:00 PM    73°F (23°C)    1 mph    60%
10:00 PM    71°F (21°C)    1 mph    62%
11:00 PM    69°F (21°C)    1 mph    63%
 

The Simi Valley, California weather pages are a service of WeatherCurrents.
Copyright ©Tue Sep 25 21:57:43 PDT 2018  WeatherCurrents. All rights reserved. - Submit questions and comments - Privacy Policy